Cloud_Cover
8 0 0 0 0 0 0 0 0 0 0 0 0 0 0 0 0 0 0 0 0 0 0 0 0 0 0 0 0 0 0 0 0 0 0 0 0 0 0 0 0 0 0 0 0 0 0 0 0 0 0 0 0 0 0 0 0 0 12 32 56 76 88 88 92 92 92 92 92
0 0 0 0 0 0 0 0 0 0 0 0 0 0 0 0 0 0 0 0 0 0 0 0 0 0 0 0 0 0 0 0 0 0 0 0 0 0 0 0 0 0 0 0 0 0 0 0 0 0 0 0 0 0 0 12 0 12 36 68 68 80 92 92 92 92 92 92 92
0 0 0 0 0 0 0 0 0 0 0 0 0 0 0 0 0 0 0 0 0 0 0 0 0 0 0 0 0 0 0 0 0 0 0 0 0 0 0 0 8 0 0 0 0 0 0 0 0 0 0 0 0 0 12 56 20 8 20 48 56 48 48 56 76 80 88 92 92
0 0 0 0 0 0 0 0 0 0 0 0 0 0 0 0 0 0 0 0 0 0 0 0 0 0 0 0 0 0 0 0 0 0 0 0 0 0 0 0 0 0 0 0 0 0 0 0 0 0 0 0 0 0 0 8 8 8 8 8 20 12 8 12 32 48 64 80 24
0 0 0 0 0 0 0 0 0 0 0 0 0 0 0 0 0 0 0 0 0 0 0 0 0 0 0 0 0 0 0 0 0 0 0 0 0 0 0 0 0 0 0 0 0 0 0 0 0 0 0 0 0 8 20 44 20 8 0 0 0 0 0 0 0 8 8 8 0
0 0 0 0 0 0 0 0 0 0 0 0 0 0 0 0 0 0 0 0 0 0 0 0 0 0 8 0 0 0 0 0 0 0 0 0 0 0 0 0 0 0 0 0 0 0 8 0 0 0 8 8 12 24 32 12 12 8 0 0 0 0 0 0 0 0 0 0 0
0 0 0 0 0 0 0 0 0 0 0 0 0 0 0 0 0 0 0 0 0 0 0 8 8 8 8 0 0 0 0 0 0 0 0 0 0 0 0 0 0 0 0 8 0 0 8 0 0 0 0 0 0 0 0 0 0 0 0 0 0 0 0 0 0 0 0 0 0
0 0 0 0 0 0 0 0 0 0 0 0 0 0 0 0 0 0 0 0 0 8 12 20 12 8 8 8 8 8 8 0 0 0 0 0 0 0 0 0 0 0 0 0 0 8 8 0 0 0 0 0 0 0 0 0 0 0 0 0 0 0 0 0 0 0 0 0 0
0 0 0 0 0 0 0 0 0 0 0 0 0 0 0 0 0 0 0 0 0 8 12 12 12 8 8 8 8 0 0 0 0 0 0 8 0 0 0 0 0 0 0 0 0 0 0 0 0 0 0 0 0 0 0 0 0 0 0 0 0 0 0 0 0 0 0 0 0
8 8 8 8 8 0 0 0 0 0 0 0 0 0 0 0 8 8 8 8 0 8 8 8 8 0 0 8 8 0 0 0 0 0 0 0 0 0 0 0 8 8 8 8 0 0 0 0 0 0 0 0 0 0 0 0 0 0 0 0 0 0 0 0 0 0 0 0 0
8 12 12 8 8 0 0 0 0 0 0 0 0 0 0 0 12 12 12 8 8 8 0 0 0 8 8 8 8 0 0 0 0 0 0 0 0 0 0 20 32 36 44 48 24 8 0 0 0 0 0 0 0 0 0 0 12 12 12 12 12 12 12 8 0 0 0 8 0
0 12 24 20 8 0 0 0 0 0 0 8 12 20 24 24 24 20 12 8 8 8 8 8 8 8 8 12 8 0 0 0 0 0 0 0 0 0 0 0 8 24 32 8 8 0 0 0 0 0 0 0 0 8 12 12 24 32 24 24 24 32 24 12 20 20 20 12 12
0 12 24 20 12 8 8 8 8 12 20 32 36 36 36 36 32 20 12 12 12 12 12 12 8 8 8 12 8 0 0 0 0 0 0 0 0 0 0 8 8 12 20 20 8 0 0 0 0 8 20 20 20 24 24 36 36 36 36 44 36 36 36 32 32 32 36 32 24
8 20 32 20 12 12 20 20 20 24 32 48 48 48 48 44 36 24 20 20 20 20 20 20 12 8 8 8 0 0 0 0 0 8 8 8 8 12 20 24 24 24 32 24 20 12 12 12 20 32 44 44 44 36 36 48 48 56 56 56 48 48 48 48 44 48 56 48 44
12 24 32 20 24 24 24 32 32 36 48 64 56 56 56 48 36 24 24 24 20 20 20 20 12 8 0 0 0 8 12 12 12 12 12 12 20 24 36 36 44 48 44 32 24 20 20 24 36 56 68 68 64 56 56 56 64 68 68 68 64 64 64 64 64 68 68 68 56
12 24 36 24 24 32 36 32 24 32 48 56 56 48 44 36 32 24 24 24 20 20 20 20 20 8 8 8 8 12 20 20 20 20 20 20 36 44 44 44 48 48 48 48 36 32 32 44 48 64 76 80 76 76 76 68 68 76 76 76 76 76 76 68 68 68 68 68 64
20 32 44 36 24 24 32 24 8 24 44 44 44 44 36 24 20 20 20 20 12 12 12 12 12 12 20 24 20 20 20 24 24 24 24 24 44 56 64 68 68 64 68 76 68 68 64 56 56 64 76 88 88 80 76 76 68 68 76 76 80 76 76 68 68 68 68 64 56
24 32 36 36 32 24 24 20 12 32 44 44 44 44 36 24 20 12 8 8 8 8 8 8 12 32 44 44 36 32 32 32 36 36 44 36 48 64 76 80 80 76 76 80 88 92 88 68 56 64 68 88 88 88 80 76 68 68 68 68 68 68 68 76 68 68 68 64 56
32 36 36 48 36 36 32 24 24 36 48 48 44 44 36 32 24 12 8 0 0 0 0 0 24 44 56 64 56 48 44 36 44 56 64 64 56 68 80 88 88 88 88 88 92 92 88 76 64 64 68 80 88 88 88 80 80 80 76 76 76 76 76 80 76 68 64 64 56
36 36 44 56 48 44 36 32 44 48 48 48 48 44 36 32 24 20 12 0 0 8 20 24 44 56 64 68 68 64 56 48 64 68 76 76 64 68 80 92 92 92 92 92 92 92 88 76 68 68 76 76 88 88 88 88 80 80 76 76 80 80 88 88 80 76 68 68 68
32 32 32 64 56 48 44 36 56 64 56 64 64 56 44 36 32 24 20 12 20 36 48 56 68 68 76 76 88 80 76 64 64 68 76 88 80 68 76 92 92 92 92 92 92 92 88 80 80 80 80 88 92 92 92 92 88 88 88 88 88 88 88 88 88 88 88 88 80
36 32 32 64 48 36 44 56 68 76 76 76 68 64 56 44 36 36 32 32 48 68 88 88 80 80 76 76 88 88 80 76 76 80 88 92 80 68 76 92 92 92 92 92 92 92 92 88 88 88 88 88 88 92 92 92 92 92 92 92 92 88 88 92 92 92 92 88 80
48 48 44 48 44 44 56 76 80 88 92 92 76 68 64 56 48 44 44 64 68 80 92 92 80 76 76 76 88 92 92 88 88 92 92 88 88 80 88 92 92 92 92 92 92 92 92 88 88 92 92 92 92 92 92 92 92 92 92 92 92 92 92 92 92 92 88 80 76
64 68 64 68 80 80 88 92 88 80 80 76 68 68 56 48 48 48 44 68 64 64 56 56 48 56 64 80 92 92 92 92 92 92 92 92 92 92 92 92 92 92 92 92 92 92 92 92 92 92 92 92 92 88 88 92 92 92 92 92 92 92 92 92 88 88 88 80 80
68 76 80 80 88 88 88 80 76 76 76 76 68 64 48 36 44 36 36 48 44 36 44 48 64 68 76 80 80 88 92 92 92 92 92 92 92 92 92 92 92 92 92 92 92 92 92 92 92 92 92 92 92 88 88 92 92 92 92 92 92 88 80 80 76 68 64 64 64
68 76 88 80 80 80 76 76 80 80 76 68 68 64 56 48 44 36 36 36 44 44 48 48 64 68 68 56 80 92 92 92 92 92 92 92 92 92 92 92 92 92 92 88 88 88 92 92 80 80 88 88 88 80 76 68 80 88 88 76 56 48 44 44 36 36 32 32 32
68 76 80 76 80 80 76 76 76 76 68 68 68 68 64 56 48 44 44 56 64 64 64 56 56 56 64 92 92 92 92 92 92 92 92 92 92 92 92 92 92 92 92 92 92 88 88 88 80 76 68 68 64 56 56 44 48 64 64 44 36 36 36 36 32 32 32 32 24
80 80 80 80 80 76 76 76 76 76 76 76 68 64 64 64 64 68 68 76 76 68 56 56 76 88 92 92 92 92 92 92 92 92 92 92 92 92 92 92 92 92 92 88 88 88 88 80 80 80 80 80 68 64 48 36 36 36 36 36 36 36 32 32 32 32 24 24 20
68 80 88 68 68 76 80 80 80 80 80 76 68 64 56 64 76 88 92 92 68 64 76 92 92 92 92 92 92 92 92 92 92 92 92 92 92 92 92 92 92 88 88 88 88 88 88 80 80 80 80 76 64 48 36 24 24 32 32 32 36 32 32 24 24 24 20 20 12
56 64 64 64 64 76 88 88 88 88 80 76 68 76 76 88 92 92 92 92 92 92 92 92 92 92 92 92 92 92 92 92 92 92 92 92 92 92 92 92 88 88 88 88 88 80 80 80 76 64 44 32 24 24 20 20 24 24 32 32 32 32 24 20 20 12 12 8 0
36 36 48 80 80 88 88 92 92 88 80 76 76 76 76 76 92 92 92 92 92 92 92 92 92 92 92 92 92 92 92 92 92 92 92 92 92 92 92 88 88 88 88 88 80 68 48 36 24 24 24 20 20 20 20 20 24 24 32 32 24 20 12 12 8 0 0 0 0
8 20 32 44 68 76 76 68 88 80 76 76 76 68 76 92 92 92 92 92 92 92 92 92 92 92 92 92 92 92 92 92 92 92 88 88 88 88 88 88 88 88 80 80 48 32 24 12 12 12 12 12 12 20 20 24 24 24 24 24 12 8 0 0 0 0 0 0 0
8 8 0 0 24 36 44 36 64 68 76 92 92 92 92 92 92 92 92 92 92 92 92 92 92 92 92 92 88 88 88 88 80 76 68 68 56 64 68 64 68 68 68 68 32 20 20 20 20 20 20 20 20 20 20 20 24 20 8 8 0 0 0 0 0 0 0 0 0
8 8 8 0 0 0 0 0 64 88 92 92 92 92 92 92 92 92 92 92 92 92 92 92 88 88 80 76 76 68 64 56 32 8 0 0 0 0 0 8 20 20 32 44 44 36 36 32 24 24 20 12 12 12 12 12 12 8 0 0 0 0 0 0 0 0 0 0 0
12 8 0 0 0 0 20 44 80 92 92 92 92 92 92 92 92 92 92 92 92 92 88 88 80 76 64 56 56 44 24 12 0 0 0 0 8 20 32 36 36 32 36 48 44 36 32 24 20 20 12 12 12 8 8 8 0 0 0 0 0 0 0 0 0 0 0 8 20
0 0 0 0 12 36 68 92 92 92 92 92 92 92 92 92 92 92 92 92 92 88 88 80 68 56 48 44 32 20 12 0 0 0 0 8 36 48 56 48 48 36 32 32 32 24 24 20 20 12 12 8 0 0 0 0 0 0 0 0 0 0 0 0 8 8 20 48 64
12 20 24 24 64 88 92 92 92 92 92 92 92 92 92 92 92 92 92 88 88 88 80 64 48 44 36 24 20 8 0 0 0 8 20 36 48 56 48 48 36 32 32 32 24 24 20 12 12 8 0 0 0 0 0 0 0 0 0 0 8 8 0 8 24 36 48 80 68
68 80 88 88 88 88 88 92 92 92 92 92 92 92 92 92 92 88 88 88 88 80 76 48 36 32 20 12 8 0 0 0 12 32 48 56 56 56 56 44 32 32 32 24 24 20 12 8 0 0 0 0 0 0 0 0 0 12 24 32 32 24 12 32 36 44 48 68 48
92 92 92 92 88 80 88 92 92 92 92 92 92 92 92 92 88 88 88 80 80 76 56 36 32 24 20 12 8 0 8 20 44 56 56 56 48 48 48 44 32 24 20 20 12 8 0 0 0 0 0 0 0 0 0 0 32 64 80 80 68 36 24 36 56 64 64 64 56
92 92 92 92 88 92 92 92 92 92 92 92 92 88 80 80 80 76 76 68 64 56 44 36 44 36 32 12 20 24 36 48 56 56 56 48 44 36 36 32 24 20 8 8 0 0 0 0 0 0 0 0 0 0 8 20 68 80 80 80 80 48 24 32 64 80 80 76 76
92 92 92 92 92 92 92 92 88 88 80 76 64 56 56 64 64 64 56 48 48 48 48 44 48 48 36 32 48 56 56 56 48 48 48 44 32 24 20 12 12 8 0 0 0 0 0 0 0 0 0 8 32 44 44 64 76 80 80 80 80 68 48 48 56 68 80 68 80